User: anonymous   Login
Location: Bothwell
(42.3833°S, 147.0000°E)
Time: 01:16:57
(UTC+10:00)
Language:

ESTCUBE 1 - Orbit

View from above orbital plane
View from above orbital plane
View from above satellite
View from above satellite

Ground track
Ground track

The orbit data is extracted from the following two-line orbital elements,

1 39161U 13021C   22268.20959056  .00000974  00000-0  15871-3 0  9998
2 39161  97.9023 342.8298 0010836  99.7682 260.4766 14.73113032504158
Epoch (UTC): 25 September 2022 05:01:48
Eccentricity: 0.0010836
inclination: 97.9023°
perigee height: 643 km
apogee height: 659 km
right ascension of ascending node: 342.8298°
argument of perigee: 99.7682°
revolutions per day: 14.73113032
mean anomaly at epoch: 260.4766°
orbit number at epoch: 50415

The dashed part of the orbit path shows where the satellite is in the earth's shadow,  

DLR